TimeCDT,TemperatureF,Dew PointF,Humidity,Sea Level PressureIn,VisibilityMPH,Wind Direction,Wind SpeedMPH,Gust SpeedMPH,PrecipitationIn,Events,Conditions,WindDirDegrees,DateUTC
12:15 AM,36.7,27.7,70,30.13,10.0,North,15.0,-,N/A,,Mostly Cloudy,350,2014-04-17 05:15:00
12:35 AM,36.5,27.1,69,30.14,10.0,NNW,16.1,-,N/A,,Overcast,340,2014-04-17 05:35:00
12:55 AM,36.5,27.3,69,30.15,10.0,NNW,16.1,-,N/A,,Overcast,340,2014-04-17 05:55:00
1:15 AM,36.5,27.3,69,30.16,10.0,North,17.3,-,N/A,,Overcast,350,2014-04-17 06:15:00
1:35 AM,35.8,26.8,70,30.16,10.0,North,16.1,-,N/A,,Overcast,360,2014-04-17 06:35:00
1:55 AM,35.6,26.6,70,30.17,10.0,North,16.1,-,N/A,,Overcast,350,2014-04-17 06:55:00
2:15 AM,35.6,26.8,70,30.17,10.0,NNW,13.8,-,N/A,,Overcast,340,2014-04-17 07:15:00
2:35 AM,35.1,26.6,71,30.17,10.0,North,17.3,-,N/A,,Overcast,350,2014-04-17 07:35:00
2:55 AM,34.9,26.6,72,30.18,10.0,NNW,17.3,21.9,N/A,,Overcast,340,2014-04-17 07:55:00
3:15 AM,34.5,26.2,72,30.20,10.0,North,19.6,-,N/A,,Overcast,350,2014-04-17 08:15:00
3:35 AM,34.0,26.2,73,30.21,10.0,North,13.8,-,N/A,,Overcast,360,2014-04-17 08:35:00
3:55 AM,34.2,26.4,73,30.22,10.0,North,17.3,23.0,N/A,,Overcast,350,2014-04-17 08:55:00
4:15 AM,33.8,26.2,74,30.22,10.0,North,15.0,-,N/A,,Overcast,350,2014-04-17 09:15:00
4:35 AM,33.8,26.2,74,30.23,10.0,North,13.8,-,N/A,,Overcast,360,2014-04-17 09:35:00
4:55 AM,33.8,26.1,73,30.24,10.0,North,13.8,19.6,N/A,,Overcast,360,2014-04-17 09:55:00
5:15 AM,33.8,26.2,74,30.24,10.0,NNW,11.5,-,N/A,,Overcast,340,2014-04-17 10:15:00
5:35 AM,33.8,26.4,74,30.24,10.0,NNW,13.8,-,N/A,,Overcast,340,2014-04-17 10:35:00
5:55 AM,33.4,26.2,75,30.24,10.0,NNW,12.7,-,N/A,,Overcast,340,2014-04-17 10:55:00
6:15 AM,33.4,26.2,75,30.24,10.0,North,15.0,-,N/A,,Overcast,350,2014-04-17 11:15:00
6:35 AM,33.3,26.1,75,30.25,10.0,NNW,12.7,-,N/A,,Overcast,340,2014-04-17 11:35:00
6:55 AM,32.9,25.7,75,30.26,10.0,North,12.7,-,N/A,,Overcast,350,2014-04-17 11:55:00
7:15 AM,32.5,25.0,74,30.27,10.0,North,15.0,-,N/A,,Overcast,350,2014-04-17 12:15:00
7:35 AM,32.4,24.8,74,30.27,10.0,North,12.7,-,N/A,,Overcast,360,2014-04-17 12:35:00
7:55 AM,32.7,24.6,72,30.27,10.0,North,16.1,19.6,N/A,,Overcast,10,2014-04-17 12:55:00
8:15 AM,33.1,24.8,72,30.29,10.0,North,15.0,-,N/A,,Overcast,10,2014-04-17 13:15:00
8:35 AM,33.8,25.0,70,30.31,10.0,North,10.4,-,N/A,,Overcast,360,2014-04-17 13:35:00
8:55 AM,34.0,25.0,70,30.33,10.0,NNE,8.1,-,N/A,,Overcast,20,2014-04-17 13:55:00
9:15 AM,34.3,25.3,70,30.33,10.0,North,9.2,-,N/A,,Overcast,10,2014-04-17 14:15:00
9:35 AM,34.7,25.2,68,30.34,10.0,NNE,9.2,-,N/A,,Overcast,20,2014-04-17 14:35:00
9:55 AM,35.1,25.5,68,30.33,10.0,North,6.9,-,N/A,,Overcast,10,2014-04-17 14:55:00
10:15 AM,36.5,26.1,66,30.33,10.0,North,11.5,-,N/A,,Overcast,350,2014-04-17 15:15:00
10:35 AM,36.7,25.7,64,30.33,10.0,North,9.2,-,N/A,,Mostly Cloudy,360,2014-04-17 15:35:00
10:55 AM,37.6,25.9,63,30.33,10.0,North,10.4,-,N/A,,Scattered Clouds,350,2014-04-17 15:55:00
11:15 AM,39.4,26.2,59,30.33,10.0,North,8.1,-,N/A,,Clear,350,2014-04-17 16:15:00
11:35 AM,41.0,26.2,56,30.33,10.0,North,5.8,-,N/A,,Clear,360,2014-04-17 16:35:00
11:55 AM,42.6,26.2,52,30.32,10.0,NE,6.9,-,N/A,,Clear,40,2014-04-17 16:55:00
12:15 PM,43.2,26.1,51,30.31,10.0,NNE,8.1,-,N/A,,Clear,20,2014-04-17 17:15:00
12:35 PM,44.4,26.2,49,30.30,10.0,North,8.1,-,N/A,,Clear,10,2014-04-17 17:35:00
12:55 PM,45.1,26.2,48,30.30,10.0,North,8.1,-,N/A,,Clear,360,2014-04-17 17:55:00
1:15 PM,46.8,27.0,46,30.29,10.0,North,8.1,-,N/A,,Clear,350,2014-04-17 18:15:00
1:35 PM,47.5,27.0,45,30.29,10.0,WNW,3.5,-,N/A,,Clear,300,2014-04-17 18:35:00
1:55 PM,49.1,27.0,42,30.29,10.0,North,5.8,-,N/A,,Clear,360,2014-04-17 18:55:00
2:15 PM,49.6,28.4,44,30.28,10.0,ENE,4.6,-,N/A,,Clear,60,2014-04-17 19:15:00
2:35 PM,50.5,27.1,40,30.27,10.0,NE,3.5,-,N/A,,Clear,50,2014-04-17 19:35:00
2:55 PM,51.8,27.3,39,30.27,10.0,SE,4.6,-,N/A,,Clear,140,2014-04-17 19:55:00
3:15 PM,51.6,27.0,38,30.27,10.0,WSW,3.5,-,N/A,,Clear,250,2014-04-17 20:15:00
3:35 PM,54.1,26.6,35,30.26,10.0,North,6.9,-,N/A,,Clear,350,2014-04-17 20:35:00
3:55 PM,53.1,26.6,36,30.25,10.0,Calm,Calm,-,N/A,,Clear,0,2014-04-17 20:55:00
4:15 PM,54.7,26.2,33,30.24,10.0,NNE,6.9,-,N/A,,Clear,20,2014-04-17 21:15:00
4:35 PM,55.0,25.9,33,30.24,10.0,North,4.6,-,N/A,,Clear,350,2014-04-17 21:35:00
4:55 PM,55.8,26.4,32,30.24,10.0,NNW,3.5,-,N/A,,Clear,330,2014-04-17 21:55:00
5:15 PM,55.8,26.6,33,30.24,10.0,Calm,Calm,-,N/A,,Clear,0,2014-04-17 22:15:00
5:35 PM,55.8,26.4,32,30.24,10.0,Calm,Calm,-,N/A,,Clear,0,2014-04-17 22:35:00
5:55 PM,55.4,26.4,33,30.24,10.0,South,3.5,-,N/A,,Clear,190,2014-04-17 22:55:00
6:15 PM,55.2,24.6,31,30.23,10.0,Calm,Calm,-,N/A,,Clear,0,2014-04-17 23:15:00
6:30 PM,55.6,25.3,31,30.23,10.0,Calm,Calm,-,N/A,,Clear,0,2014-04-17 23:30:00
6:55 PM,55.4,26.1,32,30.23,10.0,ESE,4.6,-,N/A,,Clear,120,2014-04-17 23:55:00
7:15 PM,54.7,25.2,32,30.23,10.0,Calm,Calm,-,N/A,,Clear,0,2014-04-18 00:15:00
7:35 PM,54.3,25.2,32,30.23,10.0,Calm,Calm,-,N/A,,Clear,0,2014-04-18 00:35:00
7:55 PM,52.9,26.2,36,30.23,10.0,Calm,Calm,-,N/A,,Clear,0,2014-04-18 00:55:00
8:15 PM,50.9,26.4,39,30.24,10.0,East,3.5,-,N/A,,Clear,100,2014-04-18 01:15:00
8:35 PM,49.5,26.2,40,30.24,10.0,ESE,3.5,-,N/A,,Clear,110,2014-04-18 01:35:00
8:55 PM,47.8,26.2,43,30.24,10.0,East,4.6,-,N/A,,Clear,100,2014-04-18 01:55:00
9:15 PM,46.9,26.2,44,30.25,10.0,ESE,4.6,-,N/A,,Clear,110,2014-04-18 02:15:00
9:35 PM,45.7,26.4,47,30.25,10.0,ESE,4.6,-,N/A,,Clear,110,2014-04-18 02:35:00
9:55 PM,44.6,26.6,49,30.25,10.0,ESE,3.5,-,N/A,,Clear,120,2014-04-18 02:55:00
10:15 PM,44.6,26.8,50,30.26,10.0,ESE,4.6,-,N/A,,Clear,120,2014-04-18 03:15:00
10:35 PM,44.1,27.1,51,30.26,10.0,SE,4.6,-,N/A,,Clear,130,2014-04-18 03:35:00
10:55 PM,43.0,27.3,54,30.25,10.0,SE,3.5,-,N/A,,Clear,130,2014-04-18 03:55:00
11:15 PM,43.0,27.3,54,30.26,10.0,SE,3.5,-,N/A,,Clear,140,2014-04-18 04:15:00
11:35 PM,43.2,27.5,54,30.26,10.0,SSE,3.5,-,N/A,,Clear,150,2014-04-18 04:35:00
11:55 PM,43.3,27.9,54,30.26,10.0,SSE,4.6,-,N/A,,Clear,150,2014-04-18 04:55:00